"Period start","avg(HW err(1)/warn(2) (#))","avg(Visibility (m))","avg(Weather code (#))","avg(Precip intensity (mm/h))","min(HW err(1)/warn(2) (#))","max(HW err(1)/warn(2) (#))","std(HW err(1)/warn(2) (#))","med(HW err(1)/warn(2) (#))","min(Visibility (m))","max(Visibility (m))","std(Visibility (m))","med(Visibility (m))","min(Weather code (#))","max(Weather code (#))","std(Weather code (#))","med(Weather code (#))","min(Precip intensity (mm/h))","max(Precip intensity (mm/h))","std(Precip intensity (mm/h))","med(Precip intensity (mm/h))"
2014-08-06 00:00:00,2,11074,61,1.11,2,2,0,2,9151,14189,1608,10897,61,61,0,61,0.15,2.75,0.67,0.95
2014-08-06 00:10:00,2,9493,61,1.47,2,2,0,2,8196,10589,594,9472,61,61,0,61,0.85,2.70,0.71,1.05
2014-08-06 00:20:00,2,9222,61,1.62,2,2,0,2,8036,10345,798,9238,61,61,0,61,0.40,5.15,1.22,1.35
2014-08-06 00:30:00,2,8126,61,1.06,2,2,0,2,7413,9177,550,7990,61,61,0,61,0.60,1.45,0.27,1.12
2014-08-06 00:40:00,2,9161,56,1.03,2,2,0,2,7168,11341,1257,9316,52,61,4,56,0.65,1.45,0.27,1.08
2014-08-06 00:50:00,2,10826,61,0.82,2,2,0,2,8412,12626,1230,10959,61,61,0,61,0.35,1.65,0.44,0.70
2014-08-06 01:00:00,2,12793,54,0.45,2,2,0,2,10071,16473,1883,12396,51,61,4,52,0.20,0.95,0.21,0.40
2014-08-06 01:10:00,2,11239,51,0.37,2,2,0,2,9562,15668,1646,10784,51,51,0,51,0.15,0.65,0.16,0.38
2014-08-06 01:20:00,2,9993,51,0.36,2,2,0,2,8058,12525,1203,9630,51,51,0,51,0.20,0.55,0.12,0.38
2014-08-06 01:30:00,2,8635,51,0.49,2,2,0,2,6646,10135,874,8446,51,51,0,51,0.25,1.15,0.26,0.40
2014-08-06 01:40:00,2,9288,51,0.42,2,2,0,2,8194,10877,805,9192,51,51,0,51,0.25,0.65,0.13,0.42
2014-08-06 01:50:00,2,9484,57,0.66,2,2,0,2,7995,10912,904,9636,51,61,5,61,0.10,4.10,1.15,0.30
2014-08-06 02:00:00,2,7251,61,0.82,2,2,0,2,5224,8782,1043,7430,61,61,0,61,0.15,3.00,0.91,0.40
2014-08-06 02:10:00,2,9084,61,0.77,2,2,0,2,7384,10560,905,9106,61,61,0,61,0.10,2.65,0.93,0.20
2014-08-06 02:20:00,2,8761,61,0.13,2,2,0,2,7964,9730,546,8512,61,61,0,61,0.05,0.40,0.10,0.10
2014-08-06 02:30:00,2,10791,25,0.08,2,2,0,2,9255,12835,1070,10332,10,61,23,10,0.00,0.60,0.18,0.00
2014-08-06 02:40:00,2,11439,7,0.00,2,2,0,2,9401,15787,1832,11179,0,10,5,10,0.00,0.00,0.00,0.00
2014-08-06 02:50:00,2,15432,0,0.00,2,2,0,2,12717,17055,1290,15696,0,0,0,0,0.00,0.00,0.00,0.00
2014-08-06 03:00:00,2,21173,0,0.00,2,2,0,2,16658,26928,3164,20031,0,0,0,0,0.00,0.00,0.00,0.00
2014-08-06 03:10:00,2,15600,0,0.00,2,2,0,2,13120,18578,1937,15221,0,0,0,0,0.00,0.00,0.00,0.00
2014-08-06 03:20:00,2,11790,0,0.00,2,2,0,2,8842,15142,1800,11640,0,0,0,0,0.00,0.00,0.00,0.00
2014-08-06 03:30:00,2,14011,17,0.07,2,2,0,2,10434,17036,2216,13755,0,61,27,0,0.00,0.30,0.10,0.00
2014-08-06 03:40:00,2,15073,52,0.79,2,2,0,2,12485,21900,2602,14219,51,52,0,52,0.35,1.95,0.50,0.57
2014-08-06 03:50:00,2,14608,52,0.46,2,2,0,2,12935,16411,1019,14662,51,52,0,52,0.15,0.95,0.23,0.40
2014-08-06 04:00:00,2,14941,57,0.35,2,2,0,2,13544,16963,1414,14418,51,61,5,61,0.05,0.55,0.14,0.38
2014-08-06 04:10:00,2,11419,61,1.54,2,2,0,2,8243,16119,2294,11400,61,61,0,61,0.15,9.20,2.67,0.38
2014-08-06 04:20:00,2,10800,61,6.36,2,2,0,2,8198,13655,1559,10984,61,62,0,61,1.35,13.25,3.89,5.83
2014-08-06 04:30:00,2,11266,61,4.88,2,2,0,2,9732,14520,1539,10766,61,62,0,61,1.55,10.60,3.25,4.03
2014-08-06 04:40:00,2,11512,61,1.40,2,2,0,2,9749,13187,1140,11818,61,61,0,61,0.85,2.10,0.43,1.27
2014-08-06 04:50:00,2,14145,61,1.22,2,2,0,2,11831,17065,1865,13944,61,61,0,61,0.40,2.75,0.68,1.10
2014-08-06 05:00:00,2,15532,61,1.53,2,2,0,2,14440,18269,1217,15206,61,61,0,61,0.60,3.15,0.67,1.55
2014-08-06 05:10:00,2,20987,53,0.48,2,2,0,2,16712,25610,2989,21075,51,61,3,52,0.15,0.95,0.28,0.48
2014-08-06 05:20:00,2,21724,51,0.26,2,2,0,2,14182,29941,4787,20212,51,51,0,51,0.10,0.75,0.17,0.23
2014-08-06 05:30:00,2,17306,53,0.17,2,2,0,2,12263,24268,3097,17084,51,61,4,51,0.05,0.65,0.18,0.08
2014-08-06 05:40:00,2,17743,53,0.06,2,2,0,2,14124,21987,2297,17318,0,61,18,61,0.00,0.10,0.04,0.05
2014-08-06 05:50:00,2,27751,0,0.00,2,2,0,2,16420,33087,5720,29824,0,0,0,0,0.00,0.00,0.00,0.00
2014-08-06 06:00:00,1,23920,0,0.00,0,2,1,2,18645,33406,3746,23502,0,0,0,0,0.00,0.00,0.00,0.00
2014-08-06 06:10:00,0,47347,0,0.00,0,2,1,0,39019,50000,4149,50000,0,0,0,0,0.00,0.00,0.00,0.00
2014-08-06 06:20:00,1,47029,0,0.00,0,2,1,0,37588,50000,4275,49813,0,0,0,0,0.00,0.00,0.00,0.00
2014-08-06 06:30:00,0,39871,0,0.00,0,0,0,0,33054,45531,3656,39870,0,0,0,0,0.00,0.00,0.00,0.00
2014-08-06 06:40:00,0,37809,43,0.16,0,0,0,0,33433,46113,3890,37061,0,61,22,51,0.00,0.50,0.17,0.10
2014-08-06 06:50:00,0,35848,54,0.12,0,0,0,0,17526,50000,13406,38016,51,61,5,51,0.00,0.40,0.11,0.08
2014-08-06 07:00:00,0,49194,12,0.01,0,0,0,0,46047,50000,1220,49814,0,61,24,0,0.00,0.05,0.02,0.00
2014-08-06 07:10:00,0,47017,0,0.00,0,0,0,0,41621,50000,2738,47610,0,0,0,0,0.00,0.00,0.00,0.00
2014-08-06 07:20:00,0,48639,0,0.00,0,0,0,0,42758,50000,2225,50000,0,0,0,0,0.00,0.00,0.00,0.00
2014-08-06 07:30:00,0,48574,22,0.12,0,0,0,0,43287,50000,2312,50000,0,61,28,0,0.00,0.70,0.21,0.00
2014-08-06 07:40:00,0,31219,52,0.74,0,0,0,0,21507,49277,8257,28486,51,52,0,52,0.30,1.20,0.28,0.78
2014-08-06 07:50:00,0,16435,52,0.45,0,0,0,0,5968,35208,10303,11164,51,52,0,52,0.15,1.05,0.30,0.35
2014-08-06 08:00:00,0,9206,51,0.31,0,0,0,0,4431,16603,3633,8536,51,51,0,51,0.15,0.70,0.17,0.28
2014-08-06 08:10:00,0,27966,44,0.05,0,0,0,0,7483,49965,17563,23661,0,61,22,51,0.00,0.15,0.04,0.05
2014-08-06 08:20:00,0,13448,0,0.00,0,0,0,0,4558,40247,10017,10642,0,0,0,0,0.00,0.00,0.00,0.00
2014-08-06 08:30:00,0,40018,0,0.00,0,0,0,0,23187,50000,9307,41964,0,0,0,0,0.00,0.00,0.00,0.00
2014-08-06 08:40:00,0,27649,0,0.00,0,0,0,0,14199,45362,11238,23251,0,0,0,0,0.00,0.00,0.00,0.00
2014-08-06 08:50:00,0,42949,0,0.00,0,0,0,0,28586,50000,7127,43426,0,0,0,0,0.00,0.00,0.00,0.00
2014-08-06 09:00:00,0,44050,0,0.00,0,0,0,0,27642,50000,8034,49912,0,0,0,0,0.00,0.00,0.00,0.00
2014-08-06 09:10:00,0,48292,17,0.15,0,0,0,0,42519,50000,2335,49188,0,61,27,0,0.00,1.35,0.40,0.00
2014-08-06 09:20:00,0,48760,60,0.64,0,0,0,0,41940,50000,2615,50000,51,61,3,61,0.30,1.80,0.43,0.50
2014-08-06 09:30:00,0,46290,59,0.93,0,0,0,0,36398,50000,4361,48662,51,61,4,61,0.10,1.90,0.67,0.72
2014-08-06 09:40:00,0,49416,61,0.97,0,0,0,0,46591,50000,1121,50000,61,61,0,61,0.15,1.55,0.38,0.97
2014-08-06 09:50:00,0,49855,54,0.25,0,0,0,0,48552,50000,434,50000,51,61,5,51,0.00,0.80,0.24,0.15
2014-08-06 10:00:00,0,50000,31,0.03,0,0,0,0,50000,50000,0,50000,0,51,25,51,0.00,0.10,0.03,0.00
2014-08-06 10:10:00,0,49901,12,0.02,0,0,0,0,49353,50000,209,50000,0,61,24,0,0.00,0.15,0.05,0.00
2014-08-06 10:20:00,0,49828,20,0.01,0,0,0,0,48283,50000,515,50000,0,61,25,0,0.00,0.05,0.02,0.00
2014-08-06 10:30:00,0,49826,12,0.04,0,0,0,0,48255,50000,524,50000,0,41,19,0,0.00,0.40,0.12,0.00
2014-08-06 10:40:00,0,49255,0,0.00,0,0,0,0,44225,50000,1750,50000,0,0,0,0,0.00,0.00,0.00,0.00
2014-08-06 10:50:00,0,50000,0,0.00,0,0,0,0,50000,50000,0,50000,0,0,0,0,0.00,0.00,0.00,0.00
2014-08-06 11:00:00,0,49972,0,0.00,0,0,0,0,49721,50000,84,50000,0,0,0,0,0.00,0.00,0.00,0.00
2014-08-06 11:10:00,0,50000,0,0.00,0,0,0,0,50000,50000,0,50000,0,0,0,0,0.00,0.00,0.00,0.00
2014-08-06 11:20:00,0,50000,0,0.00,0,0,0,0,50000,50000,0,50000,0,0,0,0,0.00,0.00,0.00,0.00
2014-08-06 11:30:00,0,50000,0,0.00,0,0,0,0,50000,50000,0,50000,0,0,0,0,0.00,0.00,0.00,0.00
2014-08-06 11:40:00,0,50000,0,0.00,0,0,0,0,50000,50000,0,50000,0,0,0,0,0.00,0.00,0.00,0.00
2014-08-06 11:50:00,0,50000,0,0.00,0,0,0,0,50000,50000,0,50000,0,0,0,0,0.00,0.00,0.00,0.00
2014-08-06 12:00:00,0,50000,0,0.00,0,0,0,0,50000,50000,0,50000,0,0,0,0,0.00,0.00,0.00,0.00
2014-08-06 12:10:00,0,50000,0,0.00,0,0,0,0,50000,50000,0,50000,0,0,0,0,0.00,0.00,0.00,0.00
2014-08-06 12:20:00,0,50000,0,0.00,0,0,0,0,50000,50000,0,50000,0,0,0,0,0.00,0.00,0.00,0.00
2014-08-06 12:30:00,0,50000,0,0.00,0,0,0,0,50000,50000,0,50000,0,0,0,0,0.00,0.00,0.00,0.00
2014-08-06 12:40:00,0,50000,0,0.00,0,0,0,0,50000,50000,0,50000,0,0,0,0,0.00,0.00,0.00,0.00
2014-08-06 12:50:00,0,50000,0,0.00,0,0,0,0,50000,50000,0,50000,0,0,0,0,0.00,0.00,0.00,0.00
2014-08-06 13:00:00,0,50000,0,0.00,0,0,0,0,50000,50000,0,50000,0,0,0,0,0.00,0.00,0.00,0.00
2014-08-06 13:10:00,1,50000,0,0.00,0,2,1,2,50000,50000,0,50000,0,0,0,0,0.00,0.00,0.00,0.00
2014-08-06 13:20:00,1,50000,0,0.00,0,2,1,2,50000,50000,0,50000,0,0,0,0,0.00,0.00,0.00,0.00
2014-08-06 13:30:00,0,50000,0,0.00,0,0,0,0,50000,50000,0,50000,0,0,0,0,0.00,0.00,0.00,0.00
2014-08-06 13:40:00,1,50000,0,0.00,0,2,1,2,50000,50000,0,50000,0,0,0,0,0.00,0.00,0.00,0.00
2014-08-06 13:50:00,2,50000,0,0.00,2,2,0,2,50000,50000,0,50000,0,0,0,0,0.00,0.00,0.00,0.00
2014-08-06 14:00:00,2,50000,0,0.00,2,2,0,2,50000,50000,0,50000,0,0,0,0,0.00,0.00,0.00,0.00
2014-08-06 14:10:00,2,50000,0,0.00,2,2,0,2,50000,50000,0,50000,0,0,0,0,0.00,0.00,0.00,0.00
2014-08-06 14:20:00,2,50000,0,0.00,0,2,1,2,50000,50000,0,50000,0,0,0,0,0.00,0.00,0.00,0.00
2014-08-06 14:30:00,2,50000,0,0.00,0,2,1,2,50000,50000,0,50000,0,0,0,0,0.00,0.00,0.00,0.00
2014-08-06 14:40:00,1,50000,0,0.00,0,2,1,0,50000,50000,0,50000,0,0,0,0,0.00,0.00,0.00,0.00
2014-08-06 14:50:00,1,50000,0,0.00,0,2,1,0,50000,50000,0,50000,0,0,0,0,0.00,0.00,0.00,0.00
2014-08-06 15:00:00,2,50000,0,0.00,0,2,1,2,50000,50000,0,50000,0,0,0,0,0.00,0.00,0.00,0.00
2014-08-06 15:10:00,1,50000,0,0.00,0,2,1,0,50000,50000,0,50000,0,0,0,0,0.00,0.00,0.00,0.00
2014-08-06 15:20:00,0,50000,0,0.00,0,0,0,0,50000,50000,0,50000,0,0,0,0,0.00,0.00,0.00,0.00
2014-08-06 15:30:00,0,50000,0,0.00,0,0,0,0,50000,50000,0,50000,0,0,0,0,0.00,0.00,0.00,0.00
2014-08-06 15:40:00,0,50000,0,0.00,0,0,0,0,50000,50000,0,50000,0,0,0,0,0.00,0.00,0.00,0.00
2014-08-06 15:50:00,1,50000,0,0.00,0,2,1,1,50000,50000,0,50000,0,0,0,0,0.00,0.00,0.00,0.00
2014-08-06 16:00:00,2,50000,0,0.00,0,2,1,2,50000,50000,0,50000,0,0,0,0,0.00,0.00,0.00,0.00
2014-08-06 16:10:00,2,50000,0,0.00,0,2,1,2,50000,50000,0,50000,0,0,0,0,0.00,0.00,0.00,0.00
2014-08-06 16:20:00,1,50000,0,0.00,0,2,1,2,50000,50000,0,50000,0,0,0,0,0.00,0.00,0.00,0.00
2014-08-06 16:30:00,1,50000,0,0.00,0,2,1,2,50000,50000,0,50000,0,0,0,0,0.00,0.00,0.00,0.00
2014-08-06 16:40:00,2,50000,0,0.00,2,2,0,2,50000,50000,0,50000,0,0,0,0,0.00,0.00,0.00,0.00
2014-08-06 16:50:00,2,50000,0,0.00,2,2,0,2,50000,50000,0,50000,0,0,0,0,0.00,0.00,0.00,0.00
2014-08-06 17:00:00,2,50000,0,0.00,2,2,0,2,50000,50000,0,50000,0,0,0,0,0.00,0.00,0.00,0.00
2014-08-06 17:10:00,2,50000,0,0.00,2,2,0,2,50000,50000,0,50000,0,0,0,0,0.00,0.00,0.00,0.00
2014-08-06 17:20:00,2,50000,0,0.00,0,2,1,2,50000,50000,0,50000,0,0,0,0,0.00,0.00,0.00,0.00
2014-08-06 17:30:00,2,50000,0,0.00,2,2,0,2,50000,50000,0,50000,0,0,0,0,0.00,0.00,0.00,0.00
2014-08-06 17:40:00,2,50000,0,0.00,2,2,0,2,50000,50000,0,50000,0,0,0,0,0.00,0.00,0.00,0.00
2014-08-06 17:50:00,2,50000,0,0.00,0,2,1,2,50000,50000,0,50000,0,0,0,0,0.00,0.00,0.00,0.00
2014-08-06 18:00:00,2,50000,0,0.00,2,2,0,2,50000,50000,0,50000,0,0,0,0,0.00,0.00,0.00,0.00
2014-08-06 18:10:00,2,50000,0,0.00,2,2,0,2,50000,50000,0,50000,0,0,0,0,0.00,0.00,0.00,0.00
2014-08-06 18:20:00,2,50000,0,0.00,2,2,0,2,50000,50000,0,50000,0,0,0,0,0.00,0.00,0.00,0.00
2014-08-06 18:30:00,2,50000,0,0.00,2,2,0,2,50000,50000,0,50000,0,0,0,0,0.00,0.00,0.00,0.00
2014-08-06 18:40:00,2,50000,0,0.00,2,2,0,2,50000,50000,0,50000,0,0,0,0,0.00,0.00,0.00,0.00
2014-08-06 18:50:00,2,50000,0,0.00,2,2,0,2,50000,50000,0,50000,0,0,0,0,0.00,0.00,0.00,0.00
2014-08-06 19:00:00,2,50000,0,0.00,2,2,0,2,50000,50000,0,50000,0,0,0,0,0.00,0.00,0.00,0.00
2014-08-06 19:10:00,2,50000,0,0.00,2,2,0,2,50000,50000,0,50000,0,0,0,0,0.00,0.00,0.00,0.00
2014-08-06 19:20:00,2,50000,0,0.00,2,2,0,2,50000,50000,0,50000,0,0,0,0,0.00,0.00,0.00,0.00
2014-08-06 19:30:00,2,50000,0,0.00,2,2,0,2,50000,50000,0,50000,0,0,0,0,0.00,0.00,0.00,0.00
2014-08-06 19:40:00,2,49963,0,0.00,2,2,0,2,49634,50000,110,50000,0,0,0,0,0.00,0.00,0.00,0.00
2014-08-06 19:50:00,2,50000,0,0.00,0,2,1,2,50000,50000,0,50000,0,0,0,0,0.00,0.00,0.00,0.00
2014-08-06 20:00:00,2,50000,0,0.00,2,2,0,2,50000,50000,0,50000,0,0,0,0,0.00,0.00,0.00,0.00
2014-08-06 20:10:00,2,49760,0,0.00,2,2,0,2,48400,50000,482,50000,0,0,0,0,0.00,0.00,0.00,0.00
2014-08-06 20:20:00,2,49507,0,0.00,2,2,0,2,47028,50000,1011,50000,0,0,0,0,0.00,0.00,0.00,0.00
2014-08-06 20:30:00,2,49750,0,0.00,2,2,0,2,47812,50000,653,50000,0,0,0,0,0.00,0.00,0.00,0.00
2014-08-06 20:40:00,2,49333,0,0.00,2,2,0,2,44972,50000,1534,50000,0,0,0,0,0.00,0.00,0.00,0.00
2014-08-06 20:50:00,2,49068,0,0.00,2,2,0,2,45086,50000,1856,50000,0,0,0,0,0.00,0.00,0.00,0.00
2014-08-06 21:00:00,2,48135,0,0.00,2,2,0,2,42232,50000,2860,50000,0,0,0,0,0.00,0.00,0.00,0.00
2014-08-06 21:10:00,2,49112,0,0.00,2,2,0,2,44480,50000,1684,50000,0,0,0,0,0.00,0.00,0.00,0.00
2014-08-06 21:20:00,2,46945,0,0.00,2,2,0,2,41220,50000,2990,47616,0,0,0,0,0.00,0.00,0.00,0.00
2014-08-06 21:30:00,2,49460,0,0.00,2,2,0,2,47315,50000,909,50000,0,0,0,0,0.00,0.00,0.00,0.00
2014-08-06 21:40:00,2,50000,0,0.00,2,2,0,2,50000,50000,0,50000,0,0,0,0,0.00,0.00,0.00,0.00
2014-08-06 21:50:00,2,48654,0,0.00,2,2,0,2,43876,50000,2254,50000,0,0,0,0,0.00,0.00,0.00,0.00
2014-08-06 22:00:00,2,49247,0,0.00,2,2,0,2,46375,50000,1277,50000,0,0,0,0,0.00,0.00,0.00,0.00
2014-08-06 22:10:00,2,49591,0,0.00,2,2,0,2,48334,50000,663,50000,0,0,0,0,0.00,0.00,0.00,0.00
2014-08-06 22:20:00,2,49476,0,0.00,2,2,0,2,46158,50000,1182,50000,0,0,0,0,0.00,0.00,0.00,0.00
2014-08-06 22:30:00,2,49411,0,0.00,2,2,0,2,44110,50000,1767,50000,0,0,0,0,0.00,0.00,0.00,0.00
2014-08-06 22:40:00,1,48406,0,0.00,0,2,1,2,41169,50000,2762,50000,0,0,0,0,0.00,0.00,0.00,0.00
2014-08-06 22:50:00,2,48486,0,0.00,0,2,1,2,40371,50000,2916,50000,0,0,0,0,0.00,0.00,0.00,0.00
2014-08-06 23:00:00,1,49734,0,0.00,0,2,1,1,47626,50000,708,50000,0,0,0,0,0.00,0.00,0.00,0.00
2014-08-06 23:10:00,2,49664,0,0.00,0,2,1,2,48340,50000,579,50000,0,0,0,0,0.00,0.00,0.00,0.00
2014-08-06 23:20:00,2,49400,0,0.00,2,2,0,2,45090,50000,1465,50000,0,0,0,0,0.00,0.00,0.00,0.00
2014-08-06 23:30:00,2,46452,0,0.00,2,2,0,2,36435,50000,4115,47216,0,0,0,0,0.00,0.00,0.00,0.00
2014-08-06 23:40:00,1,48053,0,0.00,0,2,1,1,40630,50000,3052,49970,0,0,0,0,0.00,0.00,0.00,0.00
2014-08-06 23:50:00,2,44246,0,0.00,2,2,0,2,37211,50000,4607,44820,0,0,0,0,0.00,0.00,0.00,0.00
